Location: Tucson
(32.2217°N, 110.9265°W)
Time: 21:41:15
(UTC-07:00)

N. Korean satellite - Pass Details

Date: 29 March 2019
Orbit: 455 x 510 km, 97.2° (Epoch: 17 June)

Event Time Altitude Azimuth Distance (km) Brightness Sun altitude
Rises 05:47:51 0° 27° (NNE) 2,559 10.8 -6.8°
Reaches altitude 10° 05:50:13 10° 42° (NE) 1,684 10.1 -6.3°
Maximum altitude 05:53:10 23° 97° (E) 1,085 9.5 -5.6°
Drops below altitude 10° 05:56:08 10° 151° (SSE) 1,698 9.6 -5.0°
Sets 05:58:31 0° 166° (SSE) 2,585 10.4 -4.5°
